[[{"header":{"parameterUnit":"m.s-1","parameterCategory":1,"la1":30.2991,"la2":30.254,"lo1":-89.0895,"lo2":-89.0444,"dy":0.0017,"dx":0.0017,"nx":28,"ny":28,"refTime":"2024-02-04T09:00:00:Z","depth":0,"parameterNumber":2,"parameterNumberName":"U-component_of_WINDS"},"data":[0,0,0,0,0,0,0,0,0,0,0,0,0,0,0,0,0,0,0,0,0,0,0,0,0,0,0,0,0,0,0,0,0,0,0,0,0,0,0,0,0,0,0,0,0,0,0,0,0,0,0,0,0,0,0,0,0,0,0.5714,0.5713,0,0.5657,0.5656,0.5656,0.5615,0.5615,0.5615,0.5614,0.5555,0.5554,0.5553,0,0,0,0,0,0,0,0,0,0,0,0,0,0.5787,0.5786,0.5714,0.5713,0.5713,0.5657,0.5656,0.5656,0.5615,0.5615,0.5615,0.5614,0.5556,0.5554,0.5553,0,0,0,0,0,0,0,0,0,0,0,0,0,0.5746,0.5786,0.5714,0.5686,0.5683,0.5657,0.5656,0.5655,0.5615,0.5615,0.5614,0.5614,0.5556,0.5554,0.5552,0.555,0,0,0.5546,0.5546,0,0,0,0,0,0,0,0,0.5748,0.5743,0.5691,0.5688,0.5684,0.5643,0.5661,0.562,0.5616,0.5641,0.5614,0.5614,0.5585,0.558,0.5571,0.5548,0.5545,0.5546,0.5545,0.5544,0.5544,0,0,0,0,0,0,0,0.5751,0.5745,0.5691,0.569,0.5686,0.5676,0.5669,0.5653,0.5616,0.5639,0.5636,0.563,0.5583,0.5573,0.5569,0.5544,0.5546,0.5545,0.5543,0.5543,0.5517,0.5517,0,0,0,0,0,0,0.5758,0.5748,0.5693,0.569,0.5716,0.5675,0.5668,0.5657,0.5616,0.561,0.563,0.5628,0.5576,0.5571,0.5567,0.5562,0.5544,0.5543,0.5541,0.5516,0.5517,0.5518,0,0,0,0,0,0,0.576,0.5754,0.5696,0.5718,0.571,0.5674,0.5662,0.5656,0.5646,0.561,0.5603,0.5626,0.5576,0.5569,0.5555,0.5559,0.5542,0.554,0.5516,0.5517,0.5517,0.5552,0,0,0,0,0,0,0.5762,0.5755,0.5754,0.5718,0.5709,0.5685,0.5662,0.5655,0.5642,0.5639,0.5605,0.5598,0.5575,0.5558,0.5553,0.5556,0.5538,0.5515,0.5516,0.5517,0.555,0.5554,0.5557,0,0,0,0,0,0.5765,0.5765,0.5754,0.5747,0.5707,0.5685,0.568,0.5653,0.5643,0.5642,0.5619,0.5599,0.556,0.5557,0.5551,0.5554,0.5515,0.5516,0.5517,0.5549,0.5553,0.5557,0,0,0,0,0,0,0.5801,0.576,0.5747,0.5736,0.5714,0.5678,0.5675,0.5658,0.5639,0.5636,0.5604,0.5596,0.5585,0.5568,0.5565,0.555,0.5535,0.5535,0.5561,0.5565,0.5568,0.5572,0.5537,0,0,0,0,0,0.5808,0.5795,0.5759,0.5753,0.5743,0.5711,0.5701,0.5682,0.5658,0.5649,0.5625,0.5603,0.5585,0.5574,0.5556,0.5548,0.554,0.5547,0.555,0.5553,0.5553,0.5548,0.5551,0.5521,0.5521,0.5521,0,0,0.5822,0.5798,0.5791,0.5759,0.5741,0.5727,0.5704,0.569,0.568,0.5647,0.5632,0.5614,0.5586,0.5575,0.5569,0.5561,0.556,0.5555,0.5557,0.5556,0.5549,0.5552,0.5555,0.5522,0.5521,0.5521,0,0,0.584,0.582,0.5813,0.5795,0.5767,0.5746,0.5745,0.5712,0.5698,0.5683,0.5658,0.5645,0.5616,0.5598,0.5584,0.5597,0.5579,0.5592,0.5609,0.5604,0.5606,0.5608,0.5613,0.5615,0.5592,0.5593,0.5593,0,0.586,0.5839,0.5811,0.5799,0.5786,0.5757,0.5749,0.5733,0.5701,0.5692,0.5683,0.5646,0.5626,0.561,0.5613,0.5604,0.5601,0.5595,0.5608,0.561,0.5611,0.5615,0.5617,0.5594,0.5594,0.5594,0.5594,0,0.5865,0.5851,0.5848,0.5819,0.5805,0.5796,0.5766,0.5756,0.5739,0.572,0.5704,0.5679,0.5656,0.5651,0.5634,0.5633,0.5628,0.5615,0.5599,0.5617,0.562,0.5621,0.5597,0.5596,0.5596,0.5595,0,0,0.5903,0.5859,0.5859,0.5845,0.5813,0.5801,0.579,0.5768,0.576,0.5739,0.5729,0.5705,0.5693,0.5678,0.5659,0.5655,0.5666,0.5641,0.564,0.5646,0.5664,0.5674,0.5676,0.5654,0.5654,0.5655,0.5666,0,0.5916,0.5895,0.587,0.5858,0.5845,0.5817,0.5808,0.5787,0.5769,0.5754,0.5734,0.5718,0.5702,0.5693,0.5688,0.5666,0.5669,0.5665,0.5644,0.5644,0.5651,0.5678,0.5688,0.57,0.5667,0.5667,0.5667,0,0.5928,0.5909,0.5895,0.5865,0.5858,0.585,0.5828,0.5815,0.5791,0.5778,0.5762,0.5742,0.5729,0.5716,0.5698,0.5696,0.5686,0.5674,0.5674,0.5671,0.5656,0.5675,0.5703,0.5705,0.5669,0.5669,0.5669,0,0.5957,0.5928,0.5916,0.5905,0.5869,0.5864,0.5849,0.5825,0.5813,0.5794,0.5786,0.5766,0.5754,0.5739,0.5714,0.5706,0.5699,0.5683,0.5687,0.5688,0.5686,0.5686,0.5713,0.5681,0.5681,0.5681,0.5681,0,0.5973,0.5966,0.5928,0.5921,0.5912,0.5884,0.5876,0.5859,0.5838,0.5827,0.5802,0.5792,0.5759,0.5745,0.5726,0.5714,0.5709,0.5698,0.5693,0.57,0.5701,0.5693,0.5691,0.5681,0.5681,0.5681,0.5681,0,0.6003,0.5978,0.5963,0.5931,0.5923,0.5918,0.589,0.5882,0.5863,0.5849,0.5844,0.5814,0.5797,0.577,0.5745,0.5732,0.5723,0.5715,0.5731,0.5728,0.5733,0.5733,0.5755,0.5756,0.5724,0.5724,0.5725,0,0.6015,0.6009,0.5976,0.5967,0.5953,0.5939,0.5927,0.59,0.5888,0.5861,0.5857,0.5838,0.5821,0.5794,0.577,0.575,0.5741,0.575,0.5738,0.5745,0.5741,0.5741,0.574,0.5753,0.5753,0.5754,0.5754,0,0.6038,0.6026,0.601,0.5991,0.5977,0.596,0.5942,0.5936,0.5905,0.5893,0.5875,0.5863,0.5837,0.5818,0.5796,0.578,0.5762,0.5758,0.5758,0.5765,0.5775,0.5769,0.5738,0.5758,0.5757,0.5757,0.5757,0.5757,0.6059,0.6053,0.6029,0.6012,0.5996,0.5979,0.5971,0.5951,0.5935,0.5913,0.5898,0.5881,0.5858,0.5826,0.5811,0.5798,0.579,0.579,0.5789,0.579,0.5792,0.5778,0.5793,0.5793,0.5793,0.5793,0.5793,0,0.6081,0.6065,0.605,0.6025,0.6012,0.5997,0.5976,0.5966,0.5952,0.5932,0.5917,0.5896,0.5879,0.5853,0.5833,0.5828,0.5819,0.5823,0.5823,0.582,0.58,0.5802,0.5831,0.5831,0.5831,0.5831,0.5831,0.5831,0.6091,0.6079,0.6065,0.6045,0.6028,0.6012,0.6001,0.5986,0.597,0.5949,0.5934,0.5918,0.5896,0.5875,0.5858,0.5851,0.5845,0.5852,0.5842,0.5824,0.5821,0.5818,0.5819,0.5851,0.5851,0.5862,0.5862,0.5863]},{"header":{"parameterUnit":"m.s-1","parameterCategory":1,"la1":30.2991,"la2":30.254,"lo1":-89.0895,"lo2":-89.0444,"dy":0.0017,"dx":0.0017,"nx":28,"ny":28,"refTime":"2024-02-04T09:00:00:Z","depth":0,"parameterNumber":3,"parameterNumberName":"V-component_of_WINDS"},"data":[0,0,0,0,0,0,0,0,0,0,0,0,0,0,0,0,0,0,0,0,0,0,0,0,0,0,0,0,0,0,0,0,0,0,0,0,0,0,0,0,0,0,0,0,0,0,0,0,0,0,0,0,0,0,0,0,0,0,-5.0212,-5.0213,0,-5.0317,-5.0318,-5.0319,-5.0283,-5.0281,-5.0279,-5.0276,-5.0384,-5.0389,-5.0394,0,0,0,0,0,0,0,0,0,0,0,0,0,-4.9981,-4.9986,-5.0212,-5.0213,-5.0215,-5.0317,-5.0318,-5.032,-5.0284,-5.0281,-5.0278,-5.0275,-5.0382,-5.0388,-5.0394,0,0,0,0,0,0,0,0,0,0,0,0,0,-5.0083,-4.9987,-5.0212,-5.0209,-5.021,-5.0317,-5.0318,-5.032,-5.0284,-5.0281,-5.0277,-5.0274,-5.038,-5.0387,-5.0395,-5.0511,0,0,-5.0418,-5.0421,0,0,0,0,0,0,0,0,-5.0078,-5.0092,-5.0208,-5.0209,-5.021,-5.0284,-5.0276,-5.0384,-5.0285,-5.0256,-5.0276,-5.0272,-5.0353,-5.0363,-5.039,-5.0516,-5.052,-5.0419,-5.0423,-5.0426,-5.0428,0,0,0,0,0,0,0,-5.0071,-5.0087,-5.0254,-5.021,-5.0211,-5.0203,-5.0213,-5.0296,-5.0323,-5.0258,-5.0256,-5.0269,-5.0353,-5.0383,-5.0392,-5.0522,-5.0418,-5.0425,-5.043,-5.0433,-5.075,-5.0753,0,0,0,0,0,0,-5.0063,-5.0082,-5.025,-5.0257,-5.0134,-5.021,-5.0222,-5.0264,-5.0322,-5.0327,-5.0272,-5.0267,-5.0372,-5.0384,-5.0396,-5.0537,-5.0426,-5.0433,-5.0438,-5.0746,-5.075,-5.0755,0,0,0,0,0,0,-5.0058,-5.0078,-5.0246,-5.0169,-5.0189,-5.0217,-5.0265,-5.0267,-5.0297,-5.0332,-5.0336,-5.0297,-5.0369,-5.0385,-5.0483,-5.054,-5.0437,-5.0444,-5.0741,-5.0747,-5.0752,-5.0818,0,0,0,0,0,0,-5.0052,-5.0077,-5.0121,-5.017,-5.0194,-5.0331,-5.0268,-5.0272,-5.031,-5.0305,-5.0357,-5.0362,-5.0368,-5.0472,-5.049,-5.0548,-5.0449,-5.0736,-5.0744,-5.0751,-5.0811,-5.0826,-5.0838,0,0,0,0,0,-5.0043,-5.0135,-5.0123,-5.0144,-5.0249,-5.0335,-5.0348,-5.0353,-5.0315,-5.036,-5.0382,-5.0361,-5.053,-5.0482,-5.0503,-5.0564,-5.0733,-5.0742,-5.075,-5.0805,-5.0823,-5.0838,0,0,0,0,0,0,-5.0091,-5.0141,-5.0129,-5.0239,-5.0283,-5.0328,-5.0385,-5.0371,-5.0427,-5.0419,-5.0423,-5.0435,-5.0535,-5.0559,-5.0504,-5.068,-5.0626,-5.0639,-5.0661,-5.0678,-5.0691,-5.0684,-5.0456,0,0,0,0,0,-5.0115,-5.018,-5.022,-5.0313,-5.0335,-5.0357,-5.0394,-5.0394,-5.0439,-5.0458,-5.0487,-5.0533,-5.0596,-5.0638,-5.0698,-5.0814,-5.0826,-5.0866,-5.088,-5.0891,-5.0903,-5.0967,-5.0986,-5.0784,-5.0783,-5.0783,0,0,-5.0164,-5.0199,-5.024,-5.0323,-5.0357,-5.0425,-5.0372,-5.0446,-5.0497,-5.0469,-5.0563,-5.0587,-5.0637,-5.0745,-5.0794,-5.0768,-5.0961,-5.0902,-5.091,-5.0916,-5.0978,-5.0997,-5.1014,-5.0789,-5.0788,-5.0787,0,0,-5.0288,-5.032,-5.0402,-5.0438,-5.049,-5.0504,-5.0524,-5.0572,-5.0587,-5.0681,-5.0662,-5.0722,-5.0832,-5.0869,-5.0902,-5.1042,-5.1025,-5.1061,-5.1132,-5.1195,-5.1211,-5.1225,-5.1277,-5.1295,-5.1073,-5.1073,-5.1073,0,-5.0342,-5.0443,-5.0446,-5.0522,-5.056,-5.0538,-5.0622,-5.0656,-5.0726,-5.0753,-5.0722,-5.086,-5.0892,-5.1009,-5.1044,-5.1071,-5.1094,-5.1056,-5.1209,-5.1223,-5.1236,-5.1285,-5.1304,-5.1077,-5.1077,-5.1076,-5.1076,0,-5.0508,-5.0579,-5.0639,-5.0707,-5.0752,-5.0831,-5.0846,-5.0891,-5.0887,-5.0904,-5.1002,-5.104,-5.1109,-5.1136,-5.1133,-5.1253,-5.1236,-5.1207,-5.1153,-5.126,-5.1306,-5.1325,-5.1083,-5.1082,-5.1081,-5.108,0,0,-5.0665,-5.0735,-5.0757,-5.0789,-5.0846,-5.0901,-5.0979,-5.1046,-5.1086,-5.1134,-5.1201,-5.1294,-5.1269,-5.1307,-5.1308,-5.1363,-5.1473,-5.1328,-5.1329,-5.1355,-5.161,-5.1632,-5.1653,-5.1461,-5.1465,-5.1468,-5.1606,0,-5.0795,-5.0934,-5.0939,-5.1066,-5.1132,-5.1113,-5.1182,-5.1224,-5.1242,-5.1301,-5.1321,-5.1388,-5.1348,-5.1371,-5.1425,-5.1448,-5.1524,-5.1438,-5.1524,-5.1527,-5.1514,-5.1677,-5.1701,-5.183,-5.1624,-5.1627,-5.1629,0,-5.0965,-5.102,-5.1154,-5.1203,-5.1231,-5.1292,-5.1355,-5.1412,-5.146,-5.1469,-5.1512,-5.1505,-5.1586,-5.1529,-5.1642,-5.1583,-5.1618,-5.1635,-5.1641,-5.165,-5.1586,-5.1693,-5.187,-5.189,-5.1657,-5.1655,-5.1653,0,-5.1069,-5.1176,-5.127,-5.1297,-5.1356,-5.14,-5.1427,-5.1472,-5.1512,-5.1567,-5.1594,-5.1657,-5.1693,-5.1742,-5.1753,-5.171,-5.1866,-5.1809,-5.1877,-5.1877,-5.1912,-5.191,-5.2099,-5.1932,-5.1932,-5.1932,-5.1931,0,-5.1214,-5.1297,-5.1318,-5.1376,-5.1468,-5.1474,-5.1565,-5.1589,-5.1629,-5.1692,-5.1678,-5.1737,-5.1747,-5.1809,-5.1817,-5.191,-5.1926,-5.1936,-5.1938,-5.1939,-5.1938,-5.1963,-5.1955,-5.1937,-5.1936,-5.1935,-5.1934,0,-5.1346,-5.1363,-5.1464,-5.1512,-5.1526,-5.1592,-5.1633,-5.1689,-5.1706,-5.1786,-5.1805,-5.1831,-5.1903,-5.1918,-5.2003,-5.2009,-5.212,-5.2112,-5.2104,-5.2104,-5.2171,-5.2166,-5.2385,-5.2415,-5.2227,-5.2229,-5.223,0,-5.1438,-5.1501,-5.1556,-5.1598,-5.1626,-5.1693,-5.1735,-5.1742,-5.1787,-5.1847,-5.1896,-5.1967,-5.2024,-5.214,-5.2167,-5.2232,-5.2226,-5.2299,-5.2236,-5.2235,-5.2229,-5.2226,-5.2233,-5.2311,-5.2313,-5.2315,-5.2316,0,-5.1601,-5.1606,-5.1667,-5.1731,-5.1782,-5.1833,-5.1881,-5.1916,-5.193,-5.1981,-5.2054,-5.2099,-5.2186,-5.2257,-5.2322,-5.235,-5.2337,-5.2336,-5.2355,-5.2357,-5.2351,-5.2357,-5.2139,-5.2331,-5.2329,-5.2328,-5.2327,-5.2327,-5.1716,-5.1773,-5.1821,-5.1889,-5.1926,-5.1972,-5.2028,-5.2052,-5.2114,-5.2186,-5.2187,-5.2268,-5.2315,-5.2402,-5.2434,-5.2497,-5.2475,-5.2503,-5.251,-5.2517,-5.2524,-5.2339,-5.2509,-5.2509,-5.2508,-5.2508,-5.2508,0,-5.188,-5.191,-5.1973,-5.2042,-5.2096,-5.2078,-5.2131,-5.2178,-5.225,-5.2295,-5.2352,-5.2437,-5.2506,-5.2539,-5.2607,-5.2652,-5.2648,-5.267,-5.2667,-5.2674,-5.254,-5.2517,-5.2672,-5.2672,-5.2672,-5.2672,-5.2672,-5.2672,-5.1971,-5.2066,-5.2078,-5.2191,-5.222,-5.23,-5.2332,-5.2375,-5.2412,-5.2508,-5.2565,-5.2586,-5.2627,-5.2698,-5.2761,-5.2769,-5.2795,-5.2821,-5.2826,-5.27,-5.2683,-5.2667,-5.2646,-5.2826,-5.2826,-5.2955,-5.2956,-5.2957]}]]